Location: Laura�t
(43.9341°N, 0.2497°E)
Time: 23:37:57
(UTC+00:00)

OBJECT-B - Pass Details

Date: 03 March 2021
Orbit: 414 x 427 km, 97.0° (Epoch: 11 April)

Event Time Altitude Azimuth Distance (km) Brightness Sun altitude
Exits shadow 19:38:15 24° 12° (NNE) 931 2.4 -20.2°
Drops below altitude 10° 19:39:44 10° 360° (N) 1,513 3.7 -20.4°
Sets 19:41:47 0° 354° (N) 2,380 4.8 -20.8°
